This demonstration page uses our WeatherBlox Daily Observations layout. Learn more.

38.89511, -77.03637

Hourly Observations for August 7, 2015

Temp ( °F °C ) Dew Point ( °F °C ) Humidity (%) Winds ( mph kmh ) Pressure ( in mb ) Visibility ( mi km ) Precip ( " mm )
12:52 am 00:52 Cloudy 75 23.9 64 17.8 69 69 N 15 24 29.88 1012 10 16.0934 0 0.0254
1:52 am 01:52 Cloudy 73 22.8 62 16.7 69 69 NE 15 24 29.87 1012 10 16.0934 0 0.0254
2:52 am 02:52 Cloudy 73 22.8 62 16.7 69 69 NE 8 13 29.85 1011 10 16.0934 0 0
3:23 am 03:23 Cloudy with Light Rain 72 22 63 17 73 73 NE 10 17 29.85 1011 10 16.0934 0 0.0254
3:52 am 03:52 Cloudy with Rain 71 21.7 64 17.8 79 79 NNE 9 15 29.85 1011 7 11.26538 0.01 0.254
4:52 am 04:52 Cloudy with Light Rain 71 21.7 64 17.8 79 79 NNE 8 13 29.85 1011 10 16.0934 0.04 1.016
5:10 am 05:10 Cloudy 72 22 64 18 78 78 NNE 7 11 29.85 1011 10 16.0934 0 0
5:34 am 05:34 Cloudy 72 22 64 18 78 78 N 10 17 29.85 1011 10 16.0934 0 0
5:52 am 05:52 Cloudy 71 21.7 65 18.3 81 81 NNE 10 17 29.85 1011 10 16.0934 0 0.0254
6:25 am 06:25 Cloudy 72 22 64 18 78 78 NNE 10 17 29.88 1012 10 16.0934 0 0
6:52 am 06:52 Cloudy 72 22.2 65 18.3 79 79 NNE 8 13 29.87 1012 10 16.0934 0 0
7:52 am 07:52 Cloudy 72 22.2 66 18.9 82 82 NNE 8 13 29.88 1012 10 16.0934 0 0
8:52 am 08:52 Cloudy 73 22.8 66 18.9 79 79 NE 8 13 29.88 1012 10 16.0934 0 0
9:52 am 09:52 Cloudy 74 23.3 66 18.9 76 76 NE 10 17 29.88 1012 10 16.0934 0 0
10:52 am 10:52 Cloudy 76 24.4 65 18.3 69 69 NE 9 15 29.89 1012 10 16.0934 0 0
11:52 am 11:52 Cloudy 77 25 64 17.8 64 64 NE 12 19 29.89 1012 10 16.0934 0 0
12:52 pm 12:52 Cloudy 78 25.6 63 17.2 60 60 NE 12 19 29.89 1012 10 16.0934 0 0
1:52 pm 13:52 Cloudy 81 27.2 63 17.2 54 54 ENE 12 19 29.87 1012 10 16.0934 0 0
2:52 pm 14:52 Cloudy 82 27.8 63 17.2 53 53 ENE 12 19 29.87 1012 10 16.0934 0 0
3:52 pm 15:52 Cloudy 83 28.3 64 17.8 53 53 NE 10 17 29.87 1011 10 16.0934 0 0
4:52 pm 16:52 Cloudy 82 27.8 64 17.8 55 55 NNE 8 13 29.87 1012 10 16.0934 0 0
5:52 pm 17:52 Cloudy 81 27.2 64 17.8 57 57 ESE 7 11 29.87 1011 10 16.0934 0 0
6:52 pm 18:52 Cloudy 81 27.2 64 17.8 57 57 E 6 9 29.87 1011 10 16.0934 0 0
7:52 pm 19:52 Cloudy 80 26.7 66 18.9 62 62 ESE 5 7 29.87 1012 10 16.0934 0 0
8:52 pm 20:52 Cloudy 79 26.1 66 18.9 65 65 ESE 6 9 29.88 1012 10 16.0934 0 0
9:52 pm 21:52 Cloudy 78 25.6 67 19.4 69 69 SE 5 7 29.9 1012 10 16.0934 0 0
10:52 pm 22:52 Cloudy 78 25.6 66 18.9 67 67 SE 3 6 29.91 1013 10 16.0934 0 0
11:52 pm 23:52 Cloudy 78 25.6 65 18.3 64 64 ESE 7 11 29.91 1013 10 16.0934 0 0

Powered by AerisWeather